GW5166 Weather Reports


time (UTC)temp
C
wind
direction
speed
KPH
gust
KPH
rain 1hr
cm
rain 24hr
cm
rain mn
cm
humidity
%
barometer
mb
20260906175120 22 98 4.8 6.4 0.00 0.00 0.00 87 1019.6
20260906174618 22 73 1.6 3.2 0.00 0.00 0.00 87 1020.0
20260906174113 22 98 1.6 1.6 0.00 0.00 0.00 88 1020.1
20260906173608 22 124 6.4 9.7 0.00 0.00 0.00 87 1020.3
20260906173104 22 79 1.6 3.2 0.00 0.00 0.00 87 1020.2
20260906172603 22 51 0.0 0.0 0.00 0.00 0.00 87 1020.2
20260906172059 22 70 0.0 0.0 0.00 0.00 0.00 87 1020.4
20260906171559 22 175 1.6 4.8 0.00 0.00 0.00 87 1020.4
20260906171054 22 174 1.6 4.8 0.00 0.00 0.00 87 1020.3
20260906170550 22 173 1.6 1.6 0.00 0.00 0.00 87 1020.1
20260906170049 22 121 6.4 9.7 0.00 0.00 0.00 87 1020.3
20260906165546 22 140 6.4 9.7 0.00 0.00 0.00 87 1020.1
20260906165041 22 96 1.6 1.6 0.00 0.00 0.00 87 1020.3
20260906164540 22 116 0.0 1.6 0.00 0.00 0.00 86 1020.5
20260906164036 22 115 0.0 1.6 0.00 0.00 0.00 87 1020.5
20260906163531 22 79 1.6 3.2 0.00 0.00 0.00 87 1020.5
20260906163027 22 102 3.2 3.2 0.00 0.00 0.00 86 1020.5
20260906162524 22 160 3.2 3.2 0.00 0.00 0.00 86 1020.3
20260906162019 22 125 8.0 9.7 0.00 0.00 0.00 88 1020.6
20260906161514 22 117 6.4 9.7 0.00 0.00 0.00 87 1020.3
20260906161013 22 120 1.6 3.2 0.00 0.00 0.00 86 1020.0
20260906160506 21 92 3.2 3.2 0.00 0.00 0.00 87 1020.2
20260906160004 22 71 3.2 4.8 0.00 0.00 0.00 88 1020.2
20260906155503 22 149 1.6 3.2 0.00 0.00 0.00 87 1020.2
20260906154959 21 82 3.2 3.2 0.00 0.00 0.00 88 1020.3
20260906154454 21 118 3.2 9.7 0.00 0.00 0.00 89 1020.2
20260906153952 21 55 6.4 9.7 0.00 0.00 0.00 89 1020.2
20260906153451 21 103 3.2 4.8 0.00 0.00 0.00 89 1020.1
20260906152947 21 63 1.6 4.8 0.00 0.00 0.00 90 1020.0
20260906152441 21 95 3.2 4.8 0.00 0.00 0.00 90 1020.1
20260906151940 21 171 4.8 9.7 0.00 0.00 0.00 90 1020.1
20260906151436 21 221 4.8 4.8 0.00 0.00 0.00 90 1020.3
20260906150931 21 123 4.8 4.8 0.00 0.00 0.00 90 1020.0
20260906150426 21 95 6.4 11.3 0.00 0.00 0.00 91 1020.3
20260906145926 21 120 6.4 9.7 0.00 0.00 0.00 92 1020.1
20260906145425 21 106 3.2 6.4 0.00 0.00 0.00 92 1020.3
20260906144920 21 127 3.2 4.8 0.00 0.00 0.00 91 1020.1
20260906144415 21 175 4.8 9.7 0.00 0.00 0.00 91 1020.2
20260906143910 21 57 1.6 3.2 0.00 0.00 0.00 91 1020.1
20260906143406 21 92 3.2 4.8 0.00 0.00 0.00 92 1020.1
20260906142901 21 125 3.2 4.8 0.00 0.00 0.00 92 1020.5
20260906142355 20 103 3.2 6.4 0.00 0.00 0.00 93 1020.2
20260906141850 20 135 8.0 9.7 0.00 0.00 0.00 93 1020.2
20260906141344 21 162 9.7 16.1 0.00 0.00 0.00 93 1020.3
20260906140844 20 108 1.6 4.8 0.00 0.00 0.00 93 1020.2
20260906140338 20 175 8.0 11.3 0.00 0.00 0.00 93 1020.3
20260906135837 20 124 8.0 11.3 0.00 0.00 0.00 93 1020.4
20260906135337 20 65 8.0 16.1 0.00 0.00 0.00 94 1020.5
20260906134832 20 49 3.2 4.8 0.00 0.00 0.00 94 1020.4
20260906134327 20 56 3.2 4.8 0.00 0.00 0.00 94 1020.3
20260906133823 20 66 6.4 9.7 0.00 0.00 0.00 94 1020.4
20260906133318 20 56 1.6 3.2 0.00 0.00 0.00 95 1020.3
20260906132814 20 116 3.2 3.2 0.00 0.00 0.00 95 1020.4
20260906132309 20 117 8.0 11.3 0.00 0.00 0.00 96 1020.4
20260906131804 20 125 8.0 9.7 0.00 0.00 0.00 96 1020.3
20260906131259 20 173 8.0 16.1 0.00 0.00 0.00 96 1020.1
20260906130754 20 134 3.2 4.8 0.00 0.00 0.00 97 1020.0
20260906130250 20 38 6.4 9.7 0.00 0.00 0.00 97 1020.1
20260906125748 20 104 11.3 12.9 0.00 0.00 0.00 98 1019.9
20260906125247 20 64 3.2 9.7 0.00 0.00 0.00 98 1019.7
20260906124747 20 114 4.8 6.4 0.00 0.00 0.00 98 1019.8
20260906124243 20 175 3.2 9.7 0.00 0.00 0.00 99 1019.7
20260906123741 20 171 9.7 12.9 0.00 0.00 0.00 99 1019.6
20260906123236 20 67 3.2 6.4 0.00 0.00 0.00 99 1019.3
20260906122731 20 70 3.2 4.8 0.00 0.00 0.00 99 1019.4
20260906122226 20 130 1.6 3.2 0.00 0.00 0.00 99 1019.3
20260906121723 20 122 3.2 4.8 0.00 0.00 0.00 99 1019.3
20260906121219 19 175 3.2 4.8 0.00 0.00 0.00 99 1019.1
20260906120714 19 42 4.8 6.4 0.00 0.00 0.00 99 1019.0
20260906120210 19 59 0.0 0.0 0.00 0.00 0.00 99 1018.8
20260906115706 19 43 1.6 3.2 0.00 0.00 0.00 99 1018.9
20260906115201 19 117 8.0 11.3 0.00 0.00 0.00 98 1019.0
20260906114659 19 62 1.6 3.2 0.00 0.00 0.00 98 1018.9
20260906114155 19 78 3.2 4.8 0.00 0.00 0.00 98 1018.8
20260906113649 19 82 6.4 9.7 0.00 0.00 0.00 98 1018.8
20260906113150 19 129 1.6 3.2 0.00 0.00 0.00 98 1018.7
20260906112649 19 116 0.0 0.0 0.00 0.00 0.00 98 1018.8
20260906112146 19 99 4.8 6.4 0.00 0.00 0.00 98 1019.0
20260906111645 19 66 4.8 6.4 0.00 0.00 0.00 98 1018.9
20260906111140 19 104 1.6 1.6 0.00 0.00 0.00 98 1018.8
20260906110635 19 121 3.2 6.4 0.00 0.00 0.00 98 1019.0
20260906110130 19 90 3.2 4.8 0.00 0.00 0.00 98 1018.9
20260906105624 19 100 0.0 0.0 0.00 0.00 0.00 97 1019.1
20260906105121 19 52 1.6 3.2 0.00 0.00 0.00 97 1018.9
20260906104619 19 70 1.6 3.2 0.00 0.00 0.00 97 1018.8
20260906104114 19 60 3.2 6.4 0.00 0.00 0.00 97 1018.8
20260906103612 19 67 0.0 0.0 0.00 0.00 0.00 97 1018.9
20260906103108 19 73 3.2 3.2 0.00 0.00 0.00 97 1018.9
20260906102607 19 68 0.0 1.6 0.00 0.00 0.00 97 1018.9
20260906102057 19 52 3.2 4.8 0.00 0.00 0.00 97 1018.7
20260906101556 19 82 3.2 4.8 0.00 0.00 0.00 97 1018.9
20260906101051 19 216 0.0 1.6 0.00 0.00 0.00 97 1018.9
20260906100547 20 186 3.2 3.2 0.00 0.00 0.00 97 1018.6
20260906100047 20 58 0.0 1.6 0.00 0.00 0.00 97 1018.7
20260906095547 19 65 1.6 3.2 0.00 0.00 0.00 97 1018.6
20260906095043 20 53 0.0 1.6 0.00 0.00 0.00 97 1018.4
20260906094541 20 45 0.0 1.6 0.00 0.00 0.00 97 1018.5
20260906094038 20 78 0.0 0.0 0.00 0.00 0.00 96 1018.4
20260906093533 20 81 6.4 9.7 0.00 0.00 0.00 96 1018.4
20260906093034 20 108 1.6 3.2 0.00 0.00 0.00 96 1018.4
20260906092529 20 49 0.0 0.0 0.00 0.00 0.00 96 1018.6
20260906092024 20 73 0.0 0.0 0.00 0.00 0.00 96 1018.4
20260906091520 20 101 1.6 3.2 0.00 0.00 0.00 96 1018.6
20260906091016 20 168 3.2 3.2 0.00 0.00 0.00 96 1018.4
20260906090511 20 91 3.2 3.2 0.00 0.00 0.00 96 1018.3
20260906090010 20 44 0.0 0.0 0.00 0.00 0.00 96 1018.3
20260906085509 20 180 0.0 0.0 0.00 0.00 0.00 96 1018.2
20260906085010 20 62 1.6 3.2 0.00 0.00 0.00 96 1018.2
20260906084509 20 86 0.0 1.6 0.00 0.00 0.00 96 1018.0
20260906084008 20 59 0.0 0.0 0.00 0.00 0.00 96 1018.1
20260906083504 20 82 1.6 1.6 0.00 0.00 0.00 96 1018.0
20260906083003 20 129 1.6 1.6 0.00 0.00 0.00 96 1017.9
20260906082459 20 40 0.0 0.0 0.00 0.00 0.00 96 1018.0
20260906081954 20 77 0.0 1.6 0.00 0.00 0.00 96 1018.2
20260906081449 20 112 0.0 0.0 0.00 0.00 0.00 96 1018.1
20260906080945 20 70 0.0 0.0 0.00 0.00 0.00 96 1018.1
20260906080442 20 48 0.0 0.0 0.00 0.00 0.00 96 1018.1
20260906075937 20 46 0.0 0.0 0.00 0.00 0.00 96 1018.2
20260906075432 20 20 0.0 0.0 0.00 0.00 0.00 95 1017.9
20260906074927 20 81 0.0 0.0 0.00 0.00 0.00 95 1018.0
20260906074427 20 114 1.6 1.6 0.00 0.00 0.00 95 1018.1
20260906073925 20 346 0.0 0.0 0.00 0.00 0.00 95 1018.1
20260906073420 20 97 3.2 3.2 0.00 0.00 0.00 95 1018.1
20260906072917 20 69 0.0 0.0 0.00 0.00 0.00 95 1018.1
20260906072412 20 63 3.2 3.2 0.00 0.00 0.00 95 1018.2
20260906071908 20 115 1.6 3.2 0.00 0.00 0.00 95 1018.2
20260906071403 20 66 0.0 0.0 0.00 0.00 0.00 95 1018.3
20260906070859 21 37 0.0 0.0 0.00 0.00 0.00 95 1018.3
20260906070355 21 123 0.0 0.0 0.00 0.00 0.00 95 1018.1
20260906065850 21 53 3.2 4.8 0.00 0.00 0.00 95 1018.5
20260906065344 21 58 0.0 1.6 0.00 0.00 0.00 95 1018.5
20260906064840 21 39 0.0 0.0 0.00 0.00 0.00 95 1018.4
20260906064331 21 58 0.0 0.0 0.00 0.00 0.00 94 1018.4
20260906063830 21 92 0.0 0.0 0.00 0.00 0.00 94 1018.6
20260906063326 21 84 0.0 1.6 0.00 0.00 0.00 94 1018.5
20260906062821 21 91 1.6 3.2 0.00 0.00 0.00 94 1018.5
20260906062320 21 89 1.6 4.8 0.00 0.00 0.00 94 1018.5
20260906061816 21 70 1.6 3.2 0.00 0.00 0.00 94 1018.6
20260906061312 21 104 0.0 1.6 0.00 0.00 0.00 94 1018.4
20260906060806 21 104 3.2 3.2 0.00 0.00 0.00 93 1018.7
20260906060304 21 81 0.0 1.6 0.00 0.00 0.00 93 1018.7
20260906055759 21 60 3.2 4.8 0.00 0.00 0.00 93 1018.6
20260906055255 21 75 4.8 4.8 0.00 0.00 0.00 94 1018.5
20260906054750 21 127 6.4 6.4 0.00 0.00 0.00 94 1018.6
20260906054245 21 65 0.0 0.0 0.00 0.00 0.00 94 1018.7
20260906053742 21 67 1.6 3.2 0.00 0.00 0.00 94 1018.9
20260906053237 21 73 0.0 1.6 0.00 0.00 0.00 94 1018.6
20260906052732 22 50 0.0 1.6 0.00 0.00 0.00 94 1018.8
20260906052228 22 53 1.6 3.2 0.00 0.00 0.00 94 1018.6
20260906051725 22 15 1.6 1.6 0.00 0.00 0.00 94 1018.5
20260906051224 22 88 1.6 3.2 0.00 0.00 0.00 94 1018.4
20260906050720 22 78 0.0 1.6 0.00 0.00 0.00 94 1018.3
20260906050215 22 46 0.0 0.0 0.00 0.00 0.00 94 1018.3
20260906045714 22 61 0.0 0.0 0.00 0.00 0.00 94 1018.3
20260906045209 22 118 0.0 0.0 0.00 0.00 0.00 94 1018.3
20260906044705 22 77 0.0 1.6 0.00 0.00 0.00 94 1018.3
20260906044159 22 69 1.6 1.6 0.00 0.00 0.00 94 1018.2
20260906043656 22 73 1.6 3.2 0.00 0.00 0.00 94 1018.1
20260906043151 22 66 3.2 4.8 0.00 0.00 0.00 94 1018.2
20260906042651 22 89 0.0 1.6 0.00 0.00 0.00 94 1018.3
20260906042145 22 71 1.6 1.6 0.00 0.00 0.00 94 1018.1
20260906041641 22 73 1.6 1.6 0.00 0.00 0.00 94 1018.0
20260906041136 22 71 0.0 0.0 0.00 0.00 0.00 93 1018.0
20260906040631 22 70 0.0 0.0 0.00 0.00 0.00 93 1018.0
20260906040126 22 88 0.0 1.6 0.00 0.00 0.00 93 1018.1
20260906035621 22 69 1.6 1.6 0.00 0.00 0.00 93 1018.1
20260906035117 22 44 0.0 1.6 0.00 0.00 0.00 93 1018.1
20260906034617 22 46 0.0 0.0 0.00 0.00 0.00 93 1018.2
20260906034112 22 48 0.0 0.0 0.00 0.00 0.00 93 1018.1
20260906033608 22 43 0.0 0.0 0.00 0.00 0.00 93 1017.9
20260906033103 23 78 1.6 3.2 0.00 0.00 0.00 93 1018.2
20260906032559 22 65 0.0 0.0 0.00 0.00 0.00 93 1018.2
20260906032059 22 73 0.0 0.0 0.00 0.00 0.00 94 1018.2
20260906031554 23 83 0.0 0.0 0.00 0.00 0.00 94 1018.4
20260906031050 23 39 0.0 0.0 0.00 0.00 0.00 94 1018.3
20260906030549 23 45 0.0 0.0 0.00 0.00 0.00 94 1018.2
20260906030049 23 71 0.0 1.6 0.00 0.00 0.00 94 1018.2
20260906025549 23 35 0.0 1.6 0.00 0.00 0.00 93 1018.3
20260906025048 23 51 0.0 0.0 0.00 0.00 0.00 93 1018.2
20260906024543 23 26 0.0 0.0 0.00 0.00 0.00 93 1018.2
20260906024043 23 28 0.0 0.0 0.00 0.00 0.00 93 1018.2
20260906023539 23 43 0.0 0.0 0.00 0.00 0.00 93 1018.1
20260906023034 23 42 0.0 0.0 0.00 0.00 0.00 92 1018.0
20260906022529 23 35 0.0 0.0 0.00 0.00 0.00 92 1017.9
20260906022024 23 32 0.0 0.0 0.00 0.00 0.00 92 1017.8
20260906021520 23 33 0.0 0.0 0.00 0.00 0.00 92 1017.9
20260906021014 23 24 0.0 0.0 0.00 0.00 0.00 92 1017.8
20260906020513 23 43 1.6 1.6 0.00 0.00 0.00 91 1017.8
20260906020013 23 55 0.0 1.6 0.00 0.00 0.00 91 1017.7
20260906015512 24 47 0.0 0.0 0.00 0.00 0.00 90 1017.7
20260906015012 24 37 0.0 0.0 0.00 0.00 0.00 90 1017.6
20260906014513 24 8 0.0 0.0 0.00 0.00 0.00 90 1017.6
20260906014009 24 30 0.0 0.0 0.00 0.00 0.00 89 1017.2
20260906013503 24 31 0.0 0.0 0.00 0.00 0.00 89 1017.2
20260906012959 24 60 0.0 0.0 0.00 0.00 0.00 88 1017.1
20260906012454 25 62 0.0 0.0 0.00 0.00 0.00 88 1017.2
20260906011953 25 100 0.0 0.0 0.00 0.00 0.00 87 1017.2
20260906011449 25 70 0.0 1.6 0.00 0.00 0.00 87 1017.0
20260906010944 25 67 0.0 0.0 0.00 0.00 0.00 87 1017.2
20260906010440 25 43 0.0 0.0 0.00 0.00 0.00 87 1017.1
20260906005936 25 101 1.6 1.6 0.00 0.00 0.00 86 1017.2
20260906005435 25 59 0.0 0.0 0.00 0.00 0.00 86 1017.1
20260906004934 25 37 0.0 0.0 0.00 0.00 0.00 86 1017.1
20260906004428 25 124 1.6 1.6 0.00 0.00 0.00 86 1017.2
20260906003924 25 75 1.6 1.6 0.00 0.00 0.00 85 1017.2
20260906003419 25 34 0.0 0.0 0.00 0.00 0.00 85 1017.1
20260906002914 25 50 0.0 0.0 0.00 0.00 0.00 84 1017.1
20260906002408 25 124 0.0 1.6 0.00 0.00 0.00 84 1017.1
20260906001903 25 124 1.6 3.2 0.00 0.00 0.00 84 1016.8
20260906001359 25 123 3.2 4.8 0.00 0.00 0.00 83 1016.9
20260906000900 25 63 0.0 1.6 0.00 0.00 0.00 83 1016.9
20260906000359 25 49 1.6 3.2 0.00 0.00 0.00 83 1016.9
20260905235854 26 20 0.0 0.0 0.00 0.00 0.00 82 1017.0
20260905235349 26 106 1.6 3.2 0.00 0.00 0.00 81 1016.9
20260905234844 26 63 0.0 1.6 0.00 0.00 0.00 81 1016.9
20260905234339 26 61 0.0 0.0 0.00 0.00 0.00 80 1016.8
20260905233834 26 49 0.0 1.6 0.00 0.00 0.00 80 1016.9
20260905233329 26 65 1.6 3.2 0.00 0.00 0.00 80 1016.8
20260905232828 26 68 0.0 0.0 0.00 0.00 0.00 80 1016.9
20260905232325 26 33 0.0 1.6 0.00 0.00 0.00 79 1016.8
20260905231820 26 52 1.6 3.2 0.00 0.00 0.00 78 1016.7
20260905231315 26 52 3.2 4.8 0.00 0.00 0.00 77 1016.4
20260905230811 27 74 0.0 0.0 0.00 0.00 0.00 76 1016.6
20260905230309 27 73 0.0 0.0 0.00 0.00 0.00 77 1016.5
20260905225809 27 75 4.8 9.7 0.00 0.00 0.00 77 1016.5
20260905225306 27 54 1.6 3.2 0.00 0.00 0.00 76 1016.5
20260905224804 27 309 0.0 0.0 0.00 0.00 0.00 73 1016.2
20260905224300 27 30 1.6 3.2 0.00 0.00 0.00 74 1016.4
20260905223755 27 168 3.2 4.8 0.00 0.00 0.00 75 1016.4
20260905223252 27 113 3.2 6.4 0.00 0.00 0.00 76 1016.3
20260905222748 27 102 0.0 0.0 0.00 0.00 0.00 77 1016.0
20260905222246 26 56 0.0 0.0 0.00 0.00 0.00 77 1016.2
20260905221742 27 42 6.4 9.7 0.00 0.00 0.00 77 1016.3
20260905221239 26 106 3.2 4.8 0.00 0.00 0.00 76 1016.2
20260905220735 27 60 0.0 3.2 0.00 0.00 0.00 76 1016.2
20260905220231 27 115 3.2 9.7 0.00 0.00 0.00 76 1016.2
20260905215730 27 36 4.8 9.7 0.00 0.00 0.00 77 1016.3
20260905215225 27 67 3.2 3.2 0.00 0.00 0.00 78 1016.0
20260905214721 27 48 3.2 4.8 0.00 0.00 0.00 78 1016.2
20260905214216 27 64 6.4 6.4 0.00 0.00 0.00 76 1016.0
20260905213711 27 86 1.6 3.2 0.00 0.00 0.00 78 1016.3
20260905213207 27 55 1.6 4.8 0.00 0.00 0.00 79 1016.3
20260905212702 27 19 4.8 6.4 0.00 0.00 0.00 79 1016.4
20260905212201 27 53 9.7 14.5 0.00 0.00 0.00 79 1016.4
20260905211656 27 70 4.8 9.7 0.00 0.00 0.00 80 1016.5
20260905211152 27 127 8.0 11.3 0.00 0.00 0.00 81 1016.4
20260905210649 27 90 0.0 1.6 0.00 0.00 0.00 80 1016.4
20260905210148 27 96 3.2 4.8 0.00 0.00 0.00 81 1016.4
20260905205647 27 75 3.2 6.4 0.00 0.00 0.00 81 1016.4
20260905205142 27 69 1.6 4.8 0.00 0.00 0.00 82 1016.2
20260905204641 27 103 3.2 9.7 0.00 0.00 0.00 81 1016.3
20260905204136 27 40 6.4 9.7 0.00 0.00 0.00 81 1016.4
20260905203631 27 74 3.2 6.4 0.00 0.00 0.00 82 1016.4
20260905203126 27 30 4.8 6.4 0.00 0.00 0.00 81 1016.4
20260905202622 27 80 4.8 9.7 0.00 0.00 0.00 82 1016.3
20260905202117 27 89 4.8 9.7 0.00 0.00 0.00 81 1016.3
20260905201613 27 96 0.0 1.6 0.00 0.00 0.00 82 1016.4
20260905201112 27 36 1.6 4.8 0.00 0.00 0.00 83 1016.5
20260905200608 27 39 1.6 3.2 0.00 0.00 0.00 84 1016.4
20260905195556 26 97 4.8 11.3 0.00 0.00 0.00 84 1016.5
20260905195052 26 73 0.0 1.6 0.00 0.00 0.00 84 1016.6
20260905194551 26 59 3.2 11.3 0.00 0.00 0.00 83 1016.6
20260905194050 26 66 0.0 1.6 0.00 0.00 0.00 83 1016.4
20260905193545 26 62 0.0 1.6 0.00 0.00 0.00 84 1017.1
20260905193041 26 32 0.0 1.6 0.00 0.00 0.00 83 1016.8
20260905192536 27 79 3.2 9.7 0.00 0.00 0.00 83 1016.6
20260905192033 27 39 6.4 6.4 0.00 0.00 0.00 83 1016.2
20260905191530 27 107 6.4 9.7 0.00 0.00 0.00 83 1015.9
20260905191030 27 88 6.4 9.7 0.00 0.00 0.00 82 1016.3
20260905190527 27 69 3.2 4.8 0.00 0.00 0.00 83 1016.2
20260905190022 26 79 6.4 6.4 0.00 0.00 0.00 83 1015.9
20260905185522 27 138 9.7 14.5 0.00 0.00 0.00 83 1015.9
20260905185020 26 58 3.2 3.2 0.00 0.00 0.00 84 1016.0
20260905184515 27 78 4.8 9.7 0.00 0.00 0.00 84 1016.0
20260905184014 27 49 4.8 6.4 0.00 0.00 0.00 83 1016.2
20260905183514 27 57 6.4 6.4 0.00 0.00 0.00 85 1016.8
20260905183009 27 35 6.4 9.7 0.00 0.00 0.00 83 1017.3
20260905182508 26 45 3.2 6.4 0.00 0.00 0.00 83 1017.6
20260905182003 26 47 4.8 9.7 0.00 0.00 0.00 85 1017.8
20260905181458 26 42 1.6 3.2 0.00 0.00 0.00 86 1017.9
20260905180957 26 23 6.4 6.4 0.00 0.00 0.00 86 1018.3
20260905180452 26 28 3.2 3.2 0.00 0.00 0.00 86 1018.4
20260905175947 26 20 4.8 4.8 0.00 0.00 0.00 87 1018.1
20260905175446 25 54 6.4 11.3 0.00 0.00 0.00 87 1018.0